• MPC Preparation (Info)

  • MPEC 2015-K130: 2015 KT154

    The following Minor Planet Electronic Circular may be linked-to from your own Web pages, but must not otherwise be redistributed electronically.

    A form allowing access to any MPEC is at the bottom of this page.


    Read MPEC 2015-K129 Read MPEC 2015-K131


    M.P.E.C. 2015-K130                               Issued 2015 May 28, 14:39 UT
    
         The Minor Planet Electronic Circulars contain information on unusual
             minor planets and routine data on comets.  They are published
       on behalf of Commission 20 of the International Astronomical Union by the
              Minor Planet Center, Smithsonian Astrophysical Observatory,
                              Cambridge, MA 02138, U.S.A.
    
                 Prepared using the Tamkin Foundation Computer Network
    
                                  MPC@CFA.HARVARD.EDU
                URL https://www.minorplanetcenter.net/    ISSN 1523-6714
    
                                      2015 KT154
    
    Observations:
         K15KF4T* C2015 05 26.27792 16 00 12.26 -04 02 47.1          20.6 VqEK130G96
         K15KF4T  C2015 05 26.28324 16 00 13.33 -04 01 28.9          20.9 VqEK130G96
         K15KF4T  C2015 05 26.28860 16 00 14.30 -04 00 08.6          21.1 VqEK130G96
         K15KF4T  C2015 05 26.29396 16 00 15.31 -03 58 47.1          20.8 VqEK130G96
         K15KF4T  C2015 05 26.32718 16 00 21.63 -03 50 31.2          21.0 VqEK130G96
         K15KF4T  C2015 05 26.32768 16 00 21.74 -03 50 24.7          20.5 VqEK130G96
         K15KF4T  C2015 05 26.32818 16 00 21.83 -03 50 16.4          20.8 VqEK130G96
         K15KF4T  C2015 05 26.32868 16 00 21.92 -03 50 09.2          20.9 VqEK130G96
         K15KF4T  C2015 05 26.32918 16 00 22.04 -03 50 03.4          20.8 VqEK130G96
         K15KF4T KC2015 05 26.42878 16 00 41.40 -03 25 15.8          21.1 RoEK130291
         K15KF4T KC2015 05 26.42992 16 00 41.70 -03 24 59.8          21.0 RoEK130291
         K15KF4T KC2015 05 26.43115 16 00 41.91 -03 24 41.0          21.1 RoEK130291
         K15KF4T  C2015 05 27.17481 16 03 31.08 -00 22 05.9          20.3 RoEK130926
         K15KF4T  C2015 05 27.17924 16 03 31.89 -00 21 01.5          20.0 RoEK130926
         K15KF4T  C2015 05 27.18366 16 03 32.78 -00 19 57.5          20.5 RoEK130926
         K15KF4T  C2015 05 27.24945 16 03 45.18 -00 04 00.4          20.9 VqEK130G96
         K15KF4T  C2015 05 27.25029 16 03 45.36 -00 03 49.6          20.9 VqEK130G96
         K15KF4T  C2015 05 27.25114 16 03 45.51 -00 03 36.9          21.2 VqEK130G96
         K15KF4T  C2015 05 27.25199 16 03 45.67 -00 03 24.8          21.1 VqEK130G96
         K15KF4T  C2015 05 27.25283 16 03 45.81 -00 03 14.2          21.7 VqEK130G96
         K15KF4T  C2015 05 28.25460 16 07 18.34 +03 54 44.9                qEK130I52
         K15KF4T  C2015 05 28.25607 16 07 18.61 +03 55 04.3          21.0 VqEK130I52
         K15KF4T  C2015 05 28.25757 16 07 18.97 +03 55 28.1          21.4 VqEK130I52
    
    Observer details:
    291 LPL/Spacewatch II.  Observer A. F. Tubbiolo.  1.8-m f/2.7 reflector + CCD.
    926 Tenagra II Observatory.  Observers M. Schwartz, P. R. Holvorcem.  Measurer
        M. Schwartz.  0.81-m f/7 Ritchey-Chretien + CCD.
    G96 Mt. Lemmon Survey.  Observer R. E. Hill.  Measurers E. J. Christensen,
        D. C. Fuls, A. R. Gibbs, A. D. Grauer, R. E. Hill, J. A. Johnson,
        R. A. Kowalski, S. M. Larson, R. G. Matheny, F. C. Shelly.  1.5-m
        reflector + CCD.
    I52 Steward Observatory, Mt. Lemmon Station.  Observer A. R. Gibbs.  Measurers
        E. J. Christensen, D. C. Fuls, A. R. Gibbs, A. D. Grauer, R. E. Hill,
        J. A. Johnson, R. A. Kowalski, S. M. Larson, R. G. Matheny, F. C. Shelly.
        1.0-m reflector + CCD.
    
    Orbital elements:
    2015 KT154                                               Earth MOID = 0.1009 AU
    Epoch 2015 June 27.0 TT = JDT 2457200.5                 MPC
    M   9.44929              (2000.0)            P               Q
    n   0.46827674     Peri.   14.87857     -0.26859070     +0.89636845
    a   1.6423573      Node   240.67604     -0.91993165     -0.34726743
    e   0.3268124      Incl.   23.86052     -0.28563052     +0.27555206
    P   2.10           H   24.7           G   0.15           U   8
    Residuals in seconds of arc
    150526 G96  0.1-  0.4+    150526 G96  0.0   1.2-    150527 G96  0.2+  0.1-
    150526 G96  0.8+  0.8-    150526 291  0.5-  0.3+    150527 G96  0.1+  0.3+
    150526 G96  0.0   0.6-    150526 291  0.6+  0.6-    150527 G96  0.1+  0.0
    150526 G96  0.2-  0.9+    150526 291  0.1+  0.2-    150527 G96  0.2-  1.6-
    150526 G96  0.4-  0.9+    150527 926  0.4+  0.3+    150528 I52  0.6-  0.2-
    150526 G96  0.2-  0.1-    150527 926  0.3-  0.1+    150528 I52  0.5-  1.3-
    150526 G96  0.3-  0.8+    150527 926  0.2+  0.2-    150528 I52  0.9+  1.5+
    150526 G96  0.4-  0.5+    150527 G96  0.1-  1.3+
    
    Ephemeris:
    2015 KT154               a,e,i = 1.64, 0.33, 24                  q = 1.1056
    Date    TT    R. A. (2000) Decl.     Delta      r     Elong.  Phase     V
    2015 04 28    13 54 37.5 -66 37 49   0.2369  1.1650   127.1    43.5    23.6
    ...
    2015 05 13    15 03 10.5 -50 03 34   0.1377  1.1294   148.0    28.3    21.9
    ...
    2015 05 21    15 39 19.8 -25 54 11   0.1053  1.1167   173.7     5.7    20.5
    ...
    2015 05 27    16 02 49.7 -01 04 05   0.1029  1.1102   159.7    18.4    20.9
    2015 05 28    16 06 23.5 +02 55 42   0.1047  1.1094   155.6    22.2    21.1
    2015 05 29    16 09 51.2 +06 45 29   0.1070  1.1087   151.6    25.8    21.2
    ...
    2015 06 04    16 28 32.7 +25 13 37   0.1300  1.1059   132.2    42.8    22.1
    ...
    2015 06 12    16 48 29.0 +39 08 45   0.1748  1.1067   117.4    54.6    23.1
    ...
    2015 06 27    17 15 33.3 +49 09 16   0.2699  1.1215   106.0    60.6    24.3
    
    A. U. Tomatic                (C) Copyright 2015 MPC           M.P.E.C. 2015-K130
    

    Read MPEC 2015-K129 Read MPEC 2015-K131


    MPEC number:

    Enter an MPEC number in one of the following forms:

    • 1997-B01 (the full form)
    • J97B01 (the packed version of the full form)
    • B01 (the abbreviated form)